| time (UTC) | temp C | wind direction | speed KPH | gust KPH | rain 1hr cm | rain 24hr cm | rain mn cm | humidity % | barometer mb |
| 20260502123016 | 25 | 141 | 3.2 | 9.7 | 0.00 | 0.00 | 0.00 | 26 | 1023.6 |
| 20260502122015 | 25 | 164 | 3.2 | 4.8 | 0.00 | 0.00 | 0.00 | 26 | 1023.6 |
| 20260502121018 | 24 | 126 | 3.2 | 11.3 | 0.00 | 0.00 | 0.00 | 27 | 1023.8 |
| 20260502115015 | 23 | 85 | 3.2 | 11.3 | 0.00 | 0.00 | 0.00 | 28 | 1024.1 |
| 20260502114035 | 23 | 18 | 4.8 | 14.5 | 0.00 | 0.00 | 0.00 | 29 | 1024.2 |
| 20260502113015 | 23 | 111 | 3.2 | 9.7 | 0.00 | 0.00 | 0.00 | 28 | 1024.3 |
| 20260502112022 | 23 | 101 | 1.6 | 6.4 | 0.00 | 0.00 | 0.00 | 29 | 1024.5 |
| 20260502111015 | 23 | 146 | 1.6 | 4.8 | 0.00 | 0.00 | 0.00 | 30 | 1024.6 |
| 20260502110016 | 22 | 27 | 3.2 | 11.3 | 0.00 | 0.00 | 0.00 | 30 | 1024.7 |
| 20260502105018 | 22 | 131 | 1.6 | 6.4 | 0.00 | 0.00 | 0.00 | 31 | 1024.8 |
| 20260502104017 | 21 | 15 | 3.2 | 12.9 | 0.00 | 0.00 | 0.00 | 31 | 1024.9 |
| 20260502103016 | 22 | 110 | 1.6 | 4.8 | 0.00 | 0.00 | 0.00 | 31 | 1025.1 |
| 20260502102015 | 21 | 143 | 3.2 | 16.1 | 0.00 | 0.00 | 0.00 | 32 | 1025.1 |
| 20260502101019 | 21 | 147 | 3.2 | 6.4 | 0.00 | 0.00 | 0.00 | 32 | 1025.3 |
| 20260502091016 | 20 | 106 | 1.6 | 4.8 | 0.00 | 0.00 | 0.00 | 33 | 1026.0 |
| 20260502071016 | 12 | 0.0 | 0.0 | 0.00 | 0.00 | 0.00 | 64 | 1026.8 | |
| 20260502070015 | 12 | 0.0 | 0.0 | 0.00 | 0.00 | 0.00 | 67 | 1026.8 | |
| 20260502065015 | 11 | 0.0 | 0.0 | 0.00 | 0.00 | 0.00 | 68 | 1026.9 | |
| 20260502064036 | 10 | 0.0 | 0.0 | 0.00 | 0.00 | 0.00 | 70 | 1027.0 | |
| 20260502063015 | 10 | 0.0 | 0.0 | 0.00 | 0.00 | 0.00 | 71 | 1027.1 | |
| 20260502062028 | 9 | 0.0 | 0.0 | 0.00 | 0.00 | 0.00 | 72 | 1027.1 | |
| 20260502061015 | 8 | 63 | 0.0 | 1.6 | 0.00 | 0.00 | 0.00 | 73 | 1027.0 |
| 20260502060016 | 8 | 76 | 0.0 | 1.6 | 0.00 | 0.00 | 0.00 | 74 | 1026.9 |
| 20260502055027 | 8 | 0.0 | 0.0 | 0.00 | 0.00 | 0.00 | 75 | 1026.9 | |
| 20260502054030 | 7 | 0.0 | 0.0 | 0.00 | 0.00 | 0.00 | 76 | 1027.0 | |
| 20260502053028 | 7 | 0.0 | 0.0 | 0.00 | 0.00 | 0.00 | 77 | 1027.0 | |
| 20260502052016 | 7 | 0.0 | 0.0 | 0.00 | 0.00 | 0.00 | 78 | 1027.0 | |
| 20260502051016 | 6 | 0.0 | 0.0 | 0.00 | 0.00 | 0.00 | 80 | 1026.9 | |
| 20260502050043 | 6 | 0.0 | 0.0 | 0.00 | 0.00 | 0.00 | 80 | 1027.0 | |
| 20260502045018 | 5 | 0.0 | 0.0 | 0.00 | 0.00 | 0.00 | 81 | 1026.9 | |
| 20260502044024 | 5 | 0.0 | 0.0 | 0.00 | 0.00 | 0.00 | 82 | 1026.8 | |
| 20260502043027 | 5 | 107 | 0.0 | 1.6 | 0.00 | 0.00 | 0.00 | 82 | 1026.8 |
| 20260502042036 | 5 | 107 | 0.0 | 1.6 | 0.00 | 0.00 | 0.00 | 82 | 1026.9 |
| 20260502041016 | 5 | 0.0 | 0.0 | 0.00 | 0.00 | 0.00 | 82 | 1027.0 | |
| 20260502040016 | 5 | 0.0 | 0.0 | 0.00 | 0.00 | 0.00 | 83 | 1026.9 | |
| 20260502035056 | 5 | 0.0 | 0.0 | 0.00 | 0.00 | 0.00 | 82 | 1026.9 | |
| 20260502034016 | 4 | 0.0 | 0.0 | 0.00 | 0.00 | 0.00 | 83 | 1027.0 | |
| 20260502033036 | 4 | 107 | 0.0 | 1.6 | 0.00 | 0.00 | 0.00 | 83 | 1027.1 |
| 20260502032025 | 5 | 107 | 0.0 | 1.6 | 0.00 | 0.00 | 0.00 | 82 | 1027.1 |
| 20260502031015 | 5 | 107 | 0.0 | 1.6 | 0.00 | 0.00 | 0.00 | 82 | 1027.1 |
| 20260502030016 | 5 | 0.0 | 0.0 | 0.00 | 0.00 | 0.00 | 82 | 1027.1 | |
| 20260502025016 | 5 | 107 | 0.0 | 1.6 | 0.00 | 0.00 | 0.00 | 82 | 1027.1 |
| 20260502024026 | 5 | 0.0 | 0.0 | 0.00 | 0.00 | 0.00 | 82 | 1027.2 | |
| 20260502023016 | 5 | 0.0 | 0.0 | 0.00 | 0.00 | 0.00 | 82 | 1027.3 | |
| 20260502022016 | 5 | 0.0 | 0.0 | 0.00 | 0.00 | 0.00 | 82 | 1027.2 | |
| 20260502021040 | 5 | 0.0 | 0.0 | 0.00 | 0.00 | 0.00 | 81 | 1027.2 | |
| 20260502020036 | 5 | 0.0 | 0.0 | 0.00 | 0.00 | 0.00 | 81 | 1027.2 | |
| 20260502015015 | 5 | 107 | 0.0 | 1.6 | 0.00 | 0.00 | 0.00 | 81 | 1027.3 |
| 20260502014016 | 6 | 0.0 | 0.0 | 0.00 | 0.00 | 0.00 | 80 | 1027.4 | |
| 20260502013015 | 6 | 0.0 | 0.0 | 0.00 | 0.00 | 0.00 | 80 | 1027.4 | |
| 20260502012040 | 6 | 0.0 | 0.0 | 0.00 | 0.00 | 0.00 | 79 | 1027.4 | |
| 20260502011015 | 6 | 107 | 0.0 | 1.6 | 0.00 | 0.00 | 0.00 | 79 | 1027.4 |
| 20260502010016 | 6 | 0.0 | 0.0 | 0.00 | 0.00 | 0.00 | 78 | 1027.5 | |
| 20260502005028 | 6 | 0.0 | 0.0 | 0.00 | 0.00 | 0.00 | 78 | 1027.5 | |
| 20260502004036 | 7 | 0.0 | 0.0 | 0.00 | 0.00 | 0.00 | 77 | 1027.6 | |
| 20260502003048 | 6 | 107 | 0.0 | 1.6 | 0.00 | 0.00 | 0.00 | 78 | 1027.6 |
| 20260502002045 | 7 | 107 | 0.0 | 1.6 | 0.00 | 0.00 | 0.00 | 77 | 1027.7 |
| 20260502001025 | 7 | 0.0 | 0.0 | 0.00 | 0.00 | 0.00 | 76 | 1027.7 | |
| 20260502000036 | 7 | 0.0 | 0.0 | 0.00 | 0.00 | 0.00 | 76 | 1027.7 | |
| 20260501235016 | 7 | 107 | 0.0 | 1.6 | 0.00 | 0.00 | 0.00 | 76 | 1027.8 |
| 20260501234033 | 7 | 107 | 0.0 | 1.6 | 0.00 | 0.00 | 0.00 | 75 | 1027.8 |
| 20260501233021 | 7 | 107 | 0.0 | 1.6 | 0.00 | 0.00 | 0.00 | 75 | 1027.8 |
| 20260501232016 | 7 | 0.0 | 0.0 | 0.00 | 0.00 | 0.00 | 75 | 1027.9 | |
| 20260501231016 | 8 | 0.0 | 0.0 | 0.00 | 0.00 | 0.00 | 75 | 1027.9 | |
| 20260501230016 | 8 | 0.0 | 0.0 | 0.00 | 0.00 | 0.00 | 74 | 1027.9 | |
| 20260501225023 | 8 | 107 | 0.0 | 1.6 | 0.00 | 0.00 | 0.00 | 73 | 1027.9 |
| 20260501224027 | 8 | 0.0 | 0.0 | 0.00 | 0.00 | 0.00 | 74 | 1027.9 | |
| 20260501223015 | 8 | 0.0 | 0.0 | 0.00 | 0.00 | 0.00 | 73 | 1027.9 | |
| 20260501222022 | 8 | 0.0 | 0.0 | 0.00 | 0.00 | 0.00 | 73 | 1028.0 | |
| 20260501221024 | 8 | 0.0 | 0.0 | 0.00 | 0.00 | 0.00 | 72 | 1028.1 | |
| 20260501220104 | 9 | 107 | 0.0 | 1.6 | 0.00 | 0.00 | 0.00 | 71 | 1028.1 |
| 20260501215016 | 9 | 107 | 0.0 | 1.6 | 0.00 | 0.00 | 0.00 | 71 | 1028.1 |
| 20260501214015 | 9 | 107 | 0.0 | 1.6 | 0.00 | 0.00 | 0.00 | 71 | 1027.9 |
| 20260501213048 | 10 | 0.0 | 0.0 | 0.00 | 0.00 | 0.00 | 70 | 1027.9 | |
| 20260501212024 | 10 | 0.0 | 0.0 | 0.00 | 0.00 | 0.00 | 71 | 1027.9 | |
| 20260501211027 | 10 | 0.0 | 0.0 | 0.00 | 0.00 | 0.00 | 70 | 1027.9 | |
| 20260501210016 | 10 | 0.0 | 0.0 | 0.00 | 0.00 | 0.00 | 68 | 1027.9 | |
| 20260501205019 | 10 | 0.0 | 0.0 | 0.00 | 0.00 | 0.00 | 66 | 1027.9 | |
| 20260501204035 | 11 | 0.0 | 0.0 | 0.00 | 0.00 | 0.00 | 65 | 1027.8 | |
| 20260501203016 | 11 | 0.0 | 0.0 | 0.00 | 0.00 | 0.00 | 64 | 1027.9 | |
| 20260501202016 | 12 | 0.0 | 0.0 | 0.00 | 0.00 | 0.00 | 63 | 1027.8 | |
| 20260501201016 | 12 | 106 | 0.0 | 1.6 | 0.00 | 0.00 | 0.00 | 63 | 1027.9 |
| 20260501200029 | 12 | 102 | 0.0 | 1.6 | 0.00 | 0.00 | 0.00 | 62 | 1027.9 |
| 20260501195016 | 12 | 104 | 0.0 | 1.6 | 0.00 | 0.00 | 0.00 | 60 | 1027.8 |
| 20260501194036 | 13 | 0.0 | 0.0 | 0.00 | 0.00 | 0.00 | 61 | 1027.7 | |
| 20260501193107 | 13 | 103 | 0.0 | 1.6 | 0.00 | 0.00 | 0.00 | 61 | 1027.7 |
| 20260501192023 | 14 | 102 | 0.0 | 1.6 | 0.00 | 0.00 | 0.00 | 60 | 1027.8 |
| 20260501191056 | 15 | 102 | 0.0 | 1.6 | 0.00 | 0.00 | 0.00 | 57 | 1027.6 |
| 20260501190018 | 15 | 106 | 0.0 | 1.6 | 0.00 | 0.00 | 0.00 | 55 | 1027.6 |
| 20260501185015 | 16 | 107 | 0.0 | 1.6 | 0.00 | 0.00 | 0.00 | 51 | 1027.6 |
| 20260501184047 | 17 | 112 | 1.6 | 1.6 | 0.00 | 0.00 | 0.00 | 48 | 1027.6 |
| 20260501183516 | 17 | 112 | 1.6 | 1.6 | 0.00 | 0.00 | 0.00 | 46 | 1027.5 |
| 20260501182536 | 19 | 95 | 0.0 | 1.6 | 0.00 | 0.00 | 0.00 | 41 | 1027.4 |
| 20260501181516 | 20 | 81 | 0.0 | 1.6 | 0.00 | 0.00 | 0.00 | 37 | 1027.3 |
| 20260501180527 | 21 | 75 | 1.6 | 1.6 | 0.00 | 0.00 | 0.00 | 35 | 1027.1 |
| 20260501175522 | 21 | 74 | 1.6 | 3.2 | 0.00 | 0.00 | 0.00 | 33 | 1027.1 |
| 20260501174515 | 21 | 37 | 3.2 | 4.8 | 0.00 | 0.00 | 0.00 | 33 | 1027.2 |
| 20260501173521 | 22 | 34 | 3.2 | 6.4 | 0.00 | 0.00 | 0.00 | 33 | 1027.2 |
| 20260501172533 | 22 | 57 | 1.6 | 4.8 | 0.00 | 0.00 | 0.00 | 32 | 1027.2 |
| 20260501171516 | 22 | 45 | 1.6 | 4.8 | 0.00 | 0.00 | 0.00 | 32 | 1027.3 |
| 20260501170516 | 22 | 70 | 1.6 | 3.2 | 0.00 | 0.00 | 0.00 | 32 | 1027.2 |
| 20260501165537 | 22 | 58 | 1.6 | 4.8 | 0.00 | 0.00 | 0.00 | 31 | 1027.3 |
| 20260501164516 | 22 | 56 | 3.2 | 6.4 | 0.00 | 0.00 | 0.00 | 31 | 1027.3 |
| 20260501163515 | 22 | 55 | 3.2 | 6.4 | 0.00 | 0.00 | 0.00 | 31 | 1027.4 |
| 20260501162536 | 23 | 44 | 1.6 | 11.3 | 0.00 | 0.00 | 0.00 | 30 | 1027.4 |
| 20260501161516 | 22 | 54 | 3.2 | 6.4 | 0.00 | 0.00 | 0.00 | 31 | 1027.5 |
| 20260501160516 | 23 | 138 | 1.6 | 4.8 | 0.00 | 0.00 | 0.00 | 30 | 1027.6 |
| 20260501155515 | 23 | 96 | 1.6 | 4.8 | 0.00 | 0.00 | 0.00 | 31 | 1027.7 |
| 20260501154656 | 23 | 81 | 1.6 | 4.8 | 0.00 | 0.00 | 0.00 | 30 | 1027.8 |
| 20260501153605 | 22 | 28 | 4.8 | 12.9 | 0.00 | 0.00 | 0.00 | 31 | 1027.9 |
| 20260501152516 | 22 | 54 | 1.6 | 4.8 | 0.00 | 0.00 | 0.00 | 32 | 1028.0 |
| 20260501151516 | 23 | 31 | 3.2 | 12.9 | 0.00 | 0.00 | 0.00 | 31 | 1028.0 |
| 20260501150515 | 22 | 80 | 3.2 | 6.4 | 0.00 | 0.00 | 0.00 | 31 | 1028.2 |